sat.trackr.live / text

‹ back to catalog

STARLINK-3178

NORAD 51467 · 2022-010M

PAYLOAD ACTIVE UNKNOWN

§ Identity

Operator
Country
US
Launch date
2022-02-03
Launch site
AFETR
Launch vehicle
Mass (kg)
RCS (m²)

Purposes: comms

External: N2YO · Heavens-Above · Gunter

§ Orbital elements

Epoch: 2026-05-25T02:40:40.565568Z

Period
95.44 min
Inclination
53.2134°
Eccentricity
0.0002121
Mean motion
15.08801117 rev/d
Perigee alt
538.4 km
Apogee alt
541.3 km
Semi-major
6,918.0 km
B*
5.3712e-4
RAAN
296.0480°
Arg perigee
87.4481°
Mean anomaly
272.6754°
Rev number
23,805

§ Raw data

STARLINK-31781 51467U 22010M   26145.11158062  .00008262  00000+0  53712-3 0  99982 51467  53.2134 296.0480 0002121  87.4481 272.6754 15.08801117238053

JSON: /api/v1/satellites/51467 · /tle

For live sub-satellite position, see the globe view (requires WebGL).

§ Visibility from observer

Set your observer location to see the next 7 days of passes ≥ 10°. The values pass through the URL so the page stays shareable.

No JS? Fill the form by hand. The geolocation button needs JavaScript.